VIV1169 MMPR-MMMX

Flight info

Callsign VIV1169
Flight time 1h 4m
Altitude 35000
Route VOLAT UT119 ESPOS
Aircraft A321/M-SDE1GIRWY/LB1

Departure

Time 2026-05-06 02:51
Airport Puerto Vallarta International Airport (MMPR)

Arrival

Time 2026-05-06 03:55
Airport Mexico City Benito Juárez International Airport (MMMX)
Time Latitude Longitude Altitude Speed Heading
2026-05-06 02:17 20.68082 -105.24680 29 ft 0 kts 227°
2026-05-06 02:42 20.68086 -105.24676 29 ft 4 kts 228°
2026-05-06 02:42 20.68103 -105.24653 29 ft 4 kts 239°
2026-05-06 02:42 20.68112 -105.24628 29 ft 4 kts 272°
2026-05-06 02:43 20.68108 -105.24611 29 ft 0 kts 317°
2026-05-06 02:46 20.68116 -105.24619 29 ft 3 kts 317°
2026-05-06 02:47 20.68134 -105.24637 29 ft 4 kts 317°
2026-05-06 02:47 20.68163 -105.24665 29 ft 7 kts 317°
2026-05-06 02:47 20.68206 -105.24699 29 ft 9 kts 340°
2026-05-06 02:47 20.68273 -105.24687 29 ft 11 kts 17°
2026-05-06 02:48 20.68353 -105.24661 29 ft 13 kts 17°
2026-05-06 02:48 20.68443 -105.24631 29 ft 14 kts 19°
2026-05-06 02:48 20.68521 -105.24569 29 ft 14 kts 46°
2026-05-06 02:48 20.68591 -105.24488 29 ft 16 kts 47°
2026-05-06 02:49 20.68670 -105.24398 29 ft 17 kts 47°
2026-05-06 02:49 20.68753 -105.24303 29 ft 18 kts 46°
2026-05-06 02:49 20.68842 -105.24262 29 ft 11 kts 339°
2026-05-06 02:49 20.68900 -105.24316 28 ft 12 kts 317°
2026-05-06 02:50 20.68924 -105.24363 29 ft 5 kts 249°
2026-05-06 02:50 20.68894 -105.24400 29 ft 23 kts 226°
2026-05-06 02:50 20.68616 -105.24719 29 ft 92 kts 227°
2026-05-06 02:50 20.68044 -105.25380 31 ft 147 kts 227°
2026-05-06 02:51 20.67268 -105.26266 300 ft 166 kts 227°
2026-05-06 02:51 20.66482 -105.27157 989 ft 165 kts 226°
2026-05-06 02:51 20.65695 -105.28044 1630 ft 165 kts 226°
2026-05-06 02:51 20.64895 -105.28946 1962 ft 179 kts 227°
2026-05-06 02:52 20.63979 -105.29981 2142 ft 200 kts 227°
2026-05-06 02:52 20.62992 -105.31096 2442 ft 215 kts 226°
2026-05-06 02:52 20.61953 -105.32269 2874 ft 219 kts 226°
2026-05-06 02:52 20.60886 -105.33474 3309 ft 223 kts 226°
2026-05-06 02:53 20.59752 -105.34611 3738 ft 225 kts 211°
2026-05-06 02:53 20.58287 -105.35018 4151 ft 226 kts 176°
2026-05-06 02:53 20.56797 -105.34480 4525 ft 228 kts 151°
2026-05-06 02:53 20.55389 -105.33682 4911 ft 230 kts 151°
2026-05-06 02:54 20.53973 -105.32871 5269 ft 232 kts 151°
2026-05-06 02:54 20.52542 -105.32051 5654 ft 234 kts 152°
2026-05-06 02:54 20.51107 -105.31233 6065 ft 235 kts 152°
2026-05-06 02:54 20.49662 -105.30410 6432 ft 237 kts 153°
2026-05-06 02:55 20.48209 -105.29585 6786 ft 238 kts 153°
2026-05-06 02:55 20.46744 -105.28755 7157 ft 238 kts 153°
2026-05-06 02:55 20.45275 -105.27924 7531 ft 239 kts 153°
2026-05-06 02:55 20.43808 -105.27096 7892 ft 240 kts 154°
2026-05-06 02:56 20.42346 -105.26253 8199 ft 241 kts 148°
2026-05-06 02:56 20.41127 -105.25010 8525 ft 244 kts 124°
2026-05-06 02:56 20.40452 -105.23332 8722 ft 254 kts 100°
2026-05-06 02:56 20.40326 -105.21396 8823 ft 271 kts 91°
2026-05-06 02:57 20.40260 -105.19310 8956 ft 291 kts 91°
2026-05-06 02:57 20.40185 -105.17105 9256 ft 302 kts 92°
2026-05-06 02:57 20.40108 -105.14845 9762 ft 307 kts 92°
2026-05-06 02:57 20.40027 -105.12549 10145 ft 318 kts 92°
2026-05-06 02:58 20.39939 -105.10129 10264 ft 335 kts 93°
2026-05-06 02:58 20.39841 -105.07582 10391 ft 352 kts 93°
2026-05-06 02:58 20.39738 -105.04912 10535 ft 367 kts 93°
2026-05-06 02:58 20.39632 -105.02171 10918 ft 372 kts 93°
2026-05-06 02:59 20.39525 -104.99413 11368 ft 373 kts 94°
2026-05-06 02:59 20.39418 -104.96649 11894 ft 374 kts 94°
2026-05-06 02:59 20.39311 -104.93877 12433 ft 375 kts 94°
2026-05-06 02:59 20.39206 -104.91094 12967 ft 377 kts 94°
2026-05-06 03:00 20.39098 -104.88302 13494 ft 378 kts 94°
2026-05-06 03:00 20.38989 -104.85503 13991 ft 380 kts 95°
2026-05-06 03:00 20.38877 -104.82678 14427 ft 382 kts 95°
2026-05-06 03:00 20.38762 -104.79833 14848 ft 385 kts 95°
2026-05-06 03:01 20.38646 -104.76977 15278 ft 387 kts 95°
2026-05-06 03:01 20.38533 -104.74148 15675 ft 390 kts 95°
2026-05-06 03:01 20.38416 -104.71198 16101 ft 393 kts 95°
2026-05-06 03:01 20.38302 -104.68278 16511 ft 396 kts 95°
2026-05-06 03:02 20.38189 -104.65390 16916 ft 399 kts 95°
2026-05-06 03:02 20.38110 -104.63373 17177 ft 401 kts 95°
2026-05-06 03:02 20.37953 -104.59428 17694 ft 405 kts 95°
2026-05-06 03:02 20.37831 -104.56419 18095 ft 408 kts 95°
2026-05-06 03:03 20.37703 -104.53393 18475 ft 410 kts 95°
2026-05-06 03:03 20.37576 -104.50345 18833 ft 412 kts 95°
2026-05-06 03:03 20.37450 -104.47277 19212 ft 414 kts 95°
2026-05-06 03:03 20.37327 -104.44209 19594 ft 417 kts 95°
2026-05-06 03:04 20.37199 -104.41111 19976 ft 419 kts 95°
2026-05-06 03:04 20.37066 -104.38006 20353 ft 421 kts 96°
2026-05-06 03:04 20.36932 -104.34879 20733 ft 423 kts 96°
2026-05-06 03:04 20.36786 -104.31745 21095 ft 424 kts 98°
2026-05-06 03:05 20.36313 -104.28654 21437 ft 422 kts 108°
2026-05-06 03:05 20.35449 -104.25678 21771 ft 421 kts 111°
2026-05-06 03:05 20.34537 -104.22708 22105 ft 423 kts 111°
2026-05-06 03:05 20.33623 -104.19725 22451 ft 424 kts 111°
2026-05-06 03:06 20.32706 -104.16727 22791 ft 426 kts 111°
2026-05-06 03:06 20.31803 -104.13755 23116 ft 428 kts 111°
2026-05-06 03:06 20.30886 -104.10735 23461 ft 430 kts 111°
2026-05-06 03:06 20.30264 -104.08686 23655 ft 431 kts 111°
2026-05-06 03:07 20.29339 -104.05642 23915 ft 433 kts 111°
2026-05-06 03:07 20.28089 -104.01546 24282 ft 436 kts 111°
2026-05-06 03:07 20.27470 -103.99516 24456 ft 437 kts 111°
2026-05-06 03:07 20.26223 -103.95425 24791 ft 440 kts 111°
2026-05-06 03:08 20.25582 -103.93326 24974 ft 441 kts 111°
2026-05-06 03:08 20.24631 -103.90209 25206 ft 444 kts 111°
2026-05-06 03:08 20.23361 -103.86058 25551 ft 447 kts 111°
2026-05-06 03:08 20.22710 -103.83930 25722 ft 448 kts 111°
2026-05-06 03:09 20.21742 -103.80764 25969 ft 450 kts 111°
2026-05-06 03:09 20.20769 -103.77586 26224 ft 452 kts 111°
2026-05-06 03:09 20.19791 -103.74396 26464 ft 455 kts 111°
2026-05-06 03:09 20.18805 -103.71190 26700 ft 457 kts 111°
2026-05-06 03:10 20.17816 -103.67969 26911 ft 459 kts 111°
2026-05-06 03:10 20.16820 -103.64731 27127 ft 461 kts 111°
2026-05-06 03:10 20.15819 -103.61485 27361 ft 463 kts 111°
2026-05-06 03:10 20.14823 -103.58257 27581 ft 465 kts 111°
2026-05-06 03:11 20.13799 -103.54946 27791 ft 467 kts 111°
2026-05-06 03:11 20.12781 -103.51654 28003 ft 469 kts 111°
2026-05-06 03:11 20.11773 -103.48387 28207 ft 472 kts 111°
2026-05-06 03:11 20.10748 -103.45061 28426 ft 474 kts 111°
2026-05-06 03:12 20.09702 -103.41680 28651 ft 476 kts 111°
2026-05-06 03:12 20.08678 -103.38368 28858 ft 478 kts 110°
2026-05-06 03:12 20.07634 -103.34997 29074 ft 481 kts 110°
2026-05-06 03:12 20.06588 -103.31619 29348 ft 481 kts 110°
2026-05-06 03:13 20.05541 -103.28239 29665 ft 481 kts 110°
2026-05-06 03:13 20.04495 -103.24864 29966 ft 481 kts 110°
2026-05-06 03:13 20.03443 -103.21483 30230 ft 481 kts 110°
2026-05-06 03:13 20.02390 -103.18101 30487 ft 481 kts 110°
2026-05-06 03:14 20.01335 -103.14725 30730 ft 481 kts 110°
2026-05-06 03:14 20.00280 -103.11346 30990 ft 481 kts 110°
2026-05-06 03:14 19.99228 -103.07970 31261 ft 481 kts 110°
2026-05-06 03:14 19.98178 -103.04605 31515 ft 481 kts 110°
2026-05-06 03:15 19.97126 -103.01221 31768 ft 481 kts 110°
2026-05-06 03:15 19.96073 -102.97842 32020 ft 481 kts 110°
2026-05-06 03:15 19.95018 -102.94474 32280 ft 481 kts 111°
2026-05-06 03:15 19.93884 -102.91121 32537 ft 480 kts 113°
2026-05-06 03:16 19.92661 -102.87821 32797 ft 480 kts 114°
2026-05-06 03:16 19.91383 -102.84554 33047 ft 479 kts 115°
2026-05-06 03:16 19.90081 -102.81294 33299 ft 479 kts 115°
2026-05-06 03:16 19.88783 -102.78031 33544 ft 479 kts 115°
2026-05-06 03:17 19.87505 -102.74766 33791 ft 479 kts 115°
2026-05-06 03:17 19.86244 -102.71488 34013 ft 479 kts 114°
2026-05-06 03:17 19.84999 -102.68218 34232 ft 478 kts 114°
2026-05-06 03:17 19.83764 -102.64958 34472 ft 478 kts 114°
2026-05-06 03:18 19.82519 -102.61669 34719 ft 477 kts 114°
2026-05-06 03:18 19.81280 -102.58410 34906 ft 476 kts 114°
2026-05-06 03:18 19.80039 -102.55154 34961 ft 475 kts 114°
2026-05-06 03:19 19.77560 -102.48673 34964 ft 474 kts 114°
2026-05-06 03:19 19.75075 -102.42187 34977 ft 473 kts 114°
2026-05-06 03:20 19.71361 -102.32528 34991 ft 473 kts 114°
2026-05-06 03:20 19.68875 -102.26067 34999 ft 473 kts 114°
2026-05-06 03:21 19.66389 -102.19597 35007 ft 474 kts 114°
2026-05-06 03:21 19.63896 -102.13132 35018 ft 474 kts 114°
2026-05-06 03:22 19.61398 -102.06658 35027 ft 474 kts 114°
2026-05-06 03:22 19.58901 -102.00180 35029 ft 474 kts 114°
2026-05-06 03:23 19.56404 -101.93718 35028 ft 474 kts 114°
2026-05-06 03:23 19.53902 -101.87249 35029 ft 474 kts 114°
2026-05-06 03:24 19.51396 -101.80790 35028 ft 474 kts 114°
2026-05-06 03:24 19.48884 -101.74337 35027 ft 473 kts 114°
2026-05-06 03:25 19.46375 -101.67883 35027 ft 474 kts 114°
2026-05-06 03:25 19.43865 -101.61428 35024 ft 474 kts 114°
2026-05-06 03:26 19.41349 -101.54978 35018 ft 474 kts 114°
2026-05-06 03:26 19.38832 -101.48529 35011 ft 474 kts 114°
2026-05-06 03:27 19.36318 -101.42084 35003 ft 473 kts 114°
2026-05-06 03:27 19.33816 -101.35684 34991 ft 474 kts 114°
2026-05-06 03:28 19.31299 -101.29249 34974 ft 473 kts 114°
2026-05-06 03:28 19.28776 -101.22810 34952 ft 473 kts 114°
2026-05-06 03:29 19.26252 -101.16376 34941 ft 473 kts 114°
2026-05-06 03:29 19.23719 -101.09936 34926 ft 474 kts 114°
2026-05-06 03:30 19.21185 -101.03499 34913 ft 474 kts 114°
2026-05-06 03:30 19.18652 -100.97066 34907 ft 474 kts 114°
2026-05-06 03:31 19.16115 -100.90623 34893 ft 474 kts 114°
2026-05-06 03:31 19.13574 -100.84187 34885 ft 474 kts 114°
2026-05-06 03:32 19.11026 -100.77758 34877 ft 474 kts 114°
2026-05-06 03:32 19.08483 -100.71323 34880 ft 474 kts 114°
2026-05-06 03:33 19.05954 -100.64940 34878 ft 473 kts 114°
2026-05-06 03:33 19.03409 -100.58523 34880 ft 473 kts 114°
2026-05-06 03:34 19.00870 -100.52122 34886 ft 472 kts 114°
2026-05-06 03:34 18.98321 -100.45725 34889 ft 472 kts 114°
2026-05-06 03:35 18.95775 -100.39320 34904 ft 472 kts 114°
2026-05-06 03:35 18.93223 -100.32921 34922 ft 472 kts 114°
2026-05-06 03:36 18.90667 -100.26531 34937 ft 472 kts 114°
2026-05-06 03:36 18.89401 -100.23355 34606 ft 470 kts 114°
2026-05-06 03:36 18.88153 -100.20217 34059 ft 471 kts 114°
2026-05-06 03:37 18.86860 -100.16975 33399 ft 472 kts 115°
2026-05-06 03:37 18.85583 -100.13785 32784 ft 471 kts 115°
2026-05-06 03:37 18.84326 -100.10653 32373 ft 467 kts 115°
2026-05-06 03:37 18.83068 -100.07517 31959 ft 462 kts 115°
2026-05-06 03:38 18.81799 -100.04354 31246 ft 464 kts 115°
2026-05-06 03:38 18.80557 -100.01266 30651 ft 464 kts 115°
2026-05-06 03:38 18.79296 -99.98129 30171 ft 460 kts 115°
2026-05-06 03:38 18.78057 -99.95045 29488 ft 454 kts 115°
2026-05-06 03:39 18.76826 -99.91989 28936 ft 451 kts 115°
2026-05-06 03:39 18.75606 -99.88960 28408 ft 446 kts 114°
2026-05-06 03:39 18.74653 -99.85850 27888 ft 445 kts 103°
2026-05-06 03:39 18.74360 -99.82620 27371 ft 443 kts 90°
2026-05-06 03:40 18.74743 -99.79401 26870 ft 442 kts 77°
2026-05-06 03:40 18.75757 -99.76357 26197 ft 438 kts 67°
2026-05-06 03:40 18.76996 -99.73491 25819 ft 424 kts 67°
2026-05-06 03:40 18.78201 -99.70686 25285 ft 416 kts 68°
2026-05-06 03:41 18.79382 -99.67916 24712 ft 411 kts 68°
2026-05-06 03:41 18.80543 -99.65175 24160 ft 406 kts 68°
2026-05-06 03:41 18.81690 -99.62458 23409 ft 407 kts 68°
2026-05-06 03:41 18.82844 -99.59720 22504 ft 408 kts 68°
2026-05-06 03:42 18.83997 -99.56990 21789 ft 404 kts 67°
2026-05-06 03:42 18.85136 -99.54303 21029 ft 398 kts 67°
2026-05-06 03:42 18.86253 -99.51671 20595 ft 386 kts 67°
2026-05-06 03:42 18.87341 -99.49107 20354 ft 380 kts 67°
2026-05-06 03:43 18.88415 -99.46573 20114 ft 376 kts 67°
2026-05-06 03:43 18.89472 -99.44067 19780 ft 371 kts 67°
2026-05-06 03:43 18.90517 -99.41581 19325 ft 370 kts 67°
2026-05-06 03:43 18.91561 -99.39095 18666 ft 374 kts 67°
2026-05-06 03:44 18.92626 -99.36562 18001 ft 379 kts 67°
2026-05-06 03:44 18.93684 -99.34054 17745 ft 369 kts 66°
2026-05-06 03:44 18.94716 -99.31612 17615 ft 356 kts 66°
2026-05-06 03:44 18.95907 -99.29375 17675 ft 352 kts 53°
2026-05-06 03:45 18.97464 -99.27343 17597 ft 359 kts 52°
2026-05-06 03:45 18.99046 -99.25308 17339 ft 357 kts 51°
2026-05-06 03:45 19.00614 -99.23303 16940 ft 352 kts 51°
2026-05-06 03:45 19.02168 -99.21314 16493 ft 349 kts 51°
2026-05-06 03:46 19.03708 -99.19342 16058 ft 347 kts 51°
2026-05-06 03:46 19.05236 -99.17379 15624 ft 345 kts 52°
2026-05-06 03:46 19.06743 -99.15438 15408 ft 336 kts 52°
2026-05-06 03:46 19.08023 -99.13791 15090 ft 324 kts 51°
2026-05-06 03:47 19.09405 -99.12011 14814 ft 306 kts 52°
2026-05-06 03:47 19.10739 -99.10295 14662 ft 299 kts 52°
2026-05-06 03:47 19.12038 -99.08624 14501 ft 288 kts 52°
2026-05-06 03:47 19.13286 -99.07021 14357 ft 274 kts 52°
2026-05-06 03:48 19.14473 -99.05491 14158 ft 265 kts 52°
2026-05-06 03:48 19.15661 -99.04024 13941 ft 263 kts 43°
2026-05-06 03:48 19.17246 -99.03101 13801 ft 264 kts 14°
2026-05-06 03:48 19.19071 -99.03096 13716 ft 265 kts 347°
2026-05-06 03:49 19.20678 -99.04016 13347 ft 266 kts 319°
2026-05-06 03:49 19.22027 -99.05357 12938 ft 266 kts 317°
2026-05-06 03:49 19.23346 -99.06683 12641 ft 263 kts 317°
2026-05-06 03:49 19.24580 -99.08050 12530 ft 252 kts 307°
2026-05-06 03:50 19.25617 -99.09514 12274 ft 247 kts 308°
2026-05-06 03:50 19.26654 -99.10960 11963 ft 246 kts 308°
2026-05-06 03:50 19.27684 -99.12384 11706 ft 242 kts 308°
2026-05-06 03:50 19.28701 -99.13789 11421 ft 239 kts 308°
2026-05-06 03:51 19.29698 -99.15166 11171 ft 232 kts 308°
2026-05-06 03:51 19.30665 -99.16504 10890 ft 226 kts 308°
2026-05-06 03:51 19.31609 -99.17809 10589 ft 220 kts 309°
2026-05-06 03:51 19.32743 -99.18857 10297 ft 216 kts 332°
2026-05-06 03:52 19.34154 -99.19336 9993 ft 211 kts 355°
2026-05-06 03:52 19.35571 -99.19202 9777 ft 200 kts 17°
2026-05-06 03:52 19.36778 -99.18566 9565 ft 192 kts 38°
2026-05-06 03:52 19.37425 -99.17906 9447 ft 190 kts 52°
2026-05-06 03:53 19.38129 -99.16727 9310 ft 190 kts 59°
2026-05-06 03:53 19.38987 -99.15202 9088 ft 178 kts 59°
2026-05-06 03:53 19.39615 -99.14085 8896 ft 175 kts 59°
2026-05-06 03:53 19.40035 -99.13339 8732 ft 174 kts 58°
2026-05-06 03:54 19.40752 -99.12313 8467 ft 173 kts 51°
2026-05-06 03:54 19.41465 -99.11310 8097 ft 169 kts 55°
2026-05-06 03:54 19.42081 -99.10255 7750 ft 168 kts 57°
2026-05-06 03:54 19.42671 -99.09200 7470 ft 166 kts 55°
2026-05-06 03:55 19.43249 -99.08172 7312 ft 159 kts 57°
2026-05-06 03:55 19.43755 -99.07280 7303 ft 116 kts 59°
2026-05-06 03:55 19.44076 -99.06708 7305 ft 67 kts 59°
2026-05-06 03:55 19.44234 -99.06426 7303 ft 27 kts 59°
2026-05-06 03:56 19.44262 -99.06325 7303 ft 3 kts 122°
2026-05-06 03:56 19.44258 -99.06323 7303 ft 1 kts 151°
2026-05-06 03:56 19.44228 -99.06328 7303 ft 9 kts 195°
2026-05-06 03:56 19.44139 -99.06377 7303 ft 18 kts 209°
2026-05-06 03:57 19.44083 -99.06408 7303 ft 4 kts 207°
2026-05-06 03:57 19.44063 -99.06419 7303 ft 0 kts 207°
2026-05-06 03:58 19.44061 -99.06420 7303 ft 2 kts 207°
2026-05-06 03:58 19.44015 -99.06445 7303 ft 12 kts 207°
2026-05-06 03:59 19.43964 -99.06517 7303 ft 14 kts 267°
2026-05-06 03:59 19.43963 -99.06616 7303 ft 13 kts 269°
2026-05-06 03:59 19.43962 -99.06690 7303 ft 6 kts 269°
2026-05-06 03:59 19.43962 -99.06713 7303 ft 3 kts 269°
2026-05-06 04:00 19.43961 -99.06747 7303 ft 7 kts 269°
2026-05-06 04:00 19.43976 -99.06812 7303 ft 9 kts 332°
2026-05-06 04:00 19.44040 -99.06847 7303 ft 10 kts 328°
2026-05-06 04:00 19.44076 -99.06871 7303 ft 4 kts 328°
2026-05-06 04:01 19.44085 -99.06876 7303 ft 1 kts 328°
2026-05-06 04:01 19.44093 -99.06900 7303 ft 7 kts 266°
2026-05-06 04:01 19.44061 -99.06965 7303 ft 12 kts 239°
2026-05-06 04:01 19.44013 -99.07050 7303 ft 14 kts 239°
2026-05-06 04:02 19.43967 -99.07131 7303 ft 12 kts 239°
2026-05-06 04:02 19.43927 -99.07202 7303 ft 10 kts 239°
2026-05-06 04:02 19.43893 -99.07264 7303 ft 9 kts 239°
2026-05-06 04:02 19.43862 -99.07319 7303 ft 9 kts 239°
2026-05-06 04:03 19.43822 -99.07390 7303 ft 13 kts 239°
2026-05-06 04:03 19.43766 -99.07489 7303 ft 18 kts 239°
2026-05-06 04:03 19.43696 -99.07613 7303 ft 22 kts 239°
2026-05-06 04:03 19.43614 -99.07758 7303 ft 23 kts 239°
2026-05-06 04:04 19.43536 -99.07899 7303 ft 21 kts 239°
2026-05-06 04:04 19.43463 -99.08028 7303 ft 19 kts 239°
2026-05-06 04:04 19.43400 -99.08140 7303 ft 17 kts 239°
2026-05-06 04:04 19.43343 -99.08242 7303 ft 15 kts 239°
2026-05-06 04:05 19.43290 -99.08336 7303 ft 15 kts 239°
2026-05-06 04:05 19.43238 -99.08428 7303 ft 14 kts 239°
2026-05-06 04:05 19.43189 -99.08518 7303 ft 14 kts 240°
2026-05-06 04:05 19.43140 -99.08605 7303 ft 14 kts 238°
2026-05-06 04:06 19.43127 -99.08693 7303 ft 12 kts 294°
2026-05-06 04:06 19.43175 -99.08765 7303 ft 12 kts 321°
2026-05-06 04:06 19.43244 -99.08783 7303 ft 8 kts 29°
2026-05-06 04:06 19.43253 -99.08753 7303 ft 1 kts 101°
2026-05-06 04:07 19.43253 -99.08750 7303 ft 1 kts 102°
2026-05-06 04:07 19.43252 -99.08747 7303 ft 0 kts 102°